Weather History for KUIL - October, 2012

Change the Weather History Date:

Saturday, October 20, 2012

  Actual Average Record
Temperature  
Mean Temperature 43 °F 49 °F  
Max Temperature 49 °F 57 °F 71 °F (1987)
Min Temperature 37 °F 41 °F 29 °F (1977)
Degree Days  
Heating Degree Days 22 16  
Month to date heating degree days 278  
Since 1 July heating degree days 903  
Cooling Degree Days 0 0  
Month to date cooling degree days 0  
Year to date cooling degree days 19  
Moisture  
Dew Point 38 °F    
Average Humidity 89    
Maximum Humidity 100    
Minimum Humidity 76    
Precipitation  
Precipitation 0.64 in 0.38 in 1.82 in (2003)
Month to date precipitation 5.92  
Year to date precipitation 66.46  
Sea Level Pressure  
Sea Level Pressure 29.85 in    
Wind  
Wind Speed 3 mph (South)    
Max Wind Speed 24 mph    
Max Gust Speed 29 mph    
Visibility 5 miles    
Events Fog , Rain    
T = Trace of Precipitation, MM = Missing Value Source: NWS Daily Summary

Daily Weather History Graph

Daily Weather History Graph

Search for Another Location

Airport or City:

Trip Planner

Search our weather history database for the weather conditions in past years. The results will help you decide how hot, cold, wet, or windy it might be!

Date:

Astronomy

Oct. 20, 2012 Rise Set
Actual Time 7:45 AM PDT 6:19 PM PDT
Civil Twilight 7:14 AM PDT 6:50 PM PDT
Nautical Twilight 6:38 AM PDT 7:26 PM PDT
Astronomical Twilight 6:02 AM PDT 8:02 PM PDT
Moon 1:39 PM PDT (10/20) 11:00 PM PDT (10/20)
Length of Visible Light 11h 36m
Length of Day
10h 33m
Waxing Crescent, 35% of the Moon is Illuminated
Oct 20
Waxing Crescent
Oct 21
First Quarter
Oct 29
Full
Nov 6
Last Quarter
Nov 13
New

Hourly Weather History & Observations

Time (PDT) Temp. Windchill Dew Point Humidity Pressure Visibility Wind Dir Wind Speed Gust Speed Precip Events Conditions
12:04 AM 41.0 °F - 39.2 °F 93% 29.82 in 2.0 mi Calm Calm - N/A   Mostly Cloudy
12:07 AM 41.0 °F - 39.2 °F 93% 29.82 in 5.0 mi Calm Calm - N/A   Mostly Cloudy
12:53 AM 41.0 °F - 39.0 °F 93% 29.84 in 8.0 mi Calm Calm - 0.00 in   Partly Cloudy
1:04 AM 41.0 °F 38.0 °F 37.4 °F 87% 29.83 in 1.8 mi SSE 4.6 mph - N/A   Partly Cloudy
1:06 AM 39.2 °F 37.0 °F 37.4 °F 93% 29.84 in 1.0 mi SSE 3.5 mph - N/A   Mist
1:13 AM 41.0 °F 39.0 °F 39.2 °F 93% 29.84 in 0.8 mi SE 3.5 mph - N/A   Mist
1:15 AM 39.2 °F - 39.2 °F 100% 29.84 in 1.2 mi Calm Calm - N/A   Partly Cloudy
1:22 AM 41.0 °F 38.0 °F 37.4 °F 87% 29.84 in 0.8 mi SE 4.6 mph - N/A   Mist
1:32 AM 39.2 °F - 37.4 °F 93% 29.84 in 0.5 mi Calm Calm - N/A Fog Fog
1:44 AM 39.2 °F - 37.4 °F 93% 29.85 in 1.0 mi Calm Calm - N/A   Mostly Cloudy
1:48 AM 39.2 °F - 37.4 °F 93% 29.85 in 2.5 mi Calm Calm - N/A   Mostly Cloudy
1:53 AM 37.9 °F - 37.0 °F 97% 29.85 in 1.5 mi Calm Calm - N/A   Scattered Clouds
2:02 AM 37.4 °F - 35.6 °F 93% 29.85 in 3.0 mi Calm Calm - N/A   Partly Cloudy
2:53 AM 37.0 °F - 36.0 °F 96% 29.86 in 4.0 mi Calm Calm - N/A   Clear
3:32 AM 39.2 °F 29.3 °F 37.4 °F 93% 29.86 in 2.0 mi WSW 20.7 mph 28.8 mph N/A   Overcast
3:39 AM 39.2 °F 31.6 °F 35.6 °F 87% 29.86 in 1.2 mi West 12.7 mph 28.8 mph 0.08 in Rain Heavy Rain
3:45 AM 39.2 °F 32.5 °F 37.4 °F 93% 29.86 in 2.0 mi West 10.4 mph 20.7 mph 0.11 in Rain Rain
3:53 AM 41.0 °F - 37.9 °F 89% 29.85 in 3.0 mi Calm Calm - 0.14 in Rain Rain
4:10 AM 39.2 °F - 37.4 °F 93% 29.85 in 10.0 mi Calm Calm - 0.00 in   Overcast
4:53 AM 39.9 °F - 37.0 °F 89% 29.85 in 9.0 mi Calm Calm - 0.00 in   Mostly Cloudy
5:53 AM 39.0 °F - 37.0 °F 93% 29.84 in 9.0 mi Calm Calm - 0.02 in Rain Light Rain
6:25 AM 39.2 °F 37.0 °F 37.4 °F 93% 29.85 in 2.0 mi NNE 3.5 mph - 0.03 in Rain Light Rain
6:37 AM 39.2 °F - 37.4 °F 93% 29.85 in 2.0 mi Calm Calm - 0.10 in Rain Rain
6:45 AM 39.2 °F 37.0 °F 37.4 °F 93% 29.85 in 7.0 mi SE 3.5 mph - 0.10 in Rain Light Rain
6:53 AM 39.0 °F 35.7 °F 37.0 °F 93% 29.85 in 10.0 mi SSE 4.6 mph - 0.10 in   Scattered Clouds
7:53 AM 39.0 °F - 37.0 °F 93% 29.85 in 4.0 mi Calm Calm - 0.01 in Rain Light Rain
8:53 AM 41.0 °F 39.0 °F 39.0 °F 93% 29.86 in 5.0 mi East 3.5 mph - 0.00 in   Mostly Cloudy
9:53 AM 45.0 °F 42.6 °F 41.0 °F 86% 29.86 in 8.0 mi ESE 4.6 mph - N/A   Scattered Clouds
10:40 AM 42.8 °F 37.0 °F 37.4 °F 81% 29.88 in 1.8 mi West 10.4 mph 25.3 mph 0.02 in Rain Rain
10:46 AM 42.8 °F - 37.4 °F 81% 29.87 in 2.0 mi Calm Calm - 0.04 in Rain Rain
10:53 AM 43.0 °F 41.3 °F 39.0 °F 86% 29.88 in 6.0 mi SW 3.5 mph - 0.04 in Rain Light Rain
11:05 AM 44.6 °F - 41.0 °F 87% 29.87 in 9.0 mi Calm Calm - 0.00 in   Scattered Clouds
11:53 AM 44.1 °F 41.5 °F 41.0 °F 89% 29.87 in 9.0 mi ESE 4.6 mph - 0.00 in   Scattered Clouds
12:23 PM 42.8 °F 40.1 °F 39.2 °F 87% 29.87 in 1.8 mi Variable 4.6 mph - 0.01 in Rain Rain
12:28 PM 42.8 °F 41.1 °F 39.2 °F 87% 29.87 in 1.2 mi Variable 3.5 mph - 0.02 in Rain Rain
12:35 PM 44.6 °F 40.7 °F 39.2 °F 81% 29.87 in 2.0 mi South 6.9 mph - 0.03 in Rain Light Rain
12:38 PM 42.8 °F 38.6 °F 39.2 °F 87% 29.87 in 3.0 mi SSW 6.9 mph - 0.03 in Rain Light Rain
12:53 PM 45.0 °F 41.8 °F 42.1 °F 90% 29.87 in 7.0 mi South 5.8 mph - 0.03 in   Overcast
1:20 PM 44.6 °F 41.4 °F 39.2 °F 81% 29.85 in 7.0 mi SE 5.8 mph - 0.01 in Rain Light Rain
1:53 PM 44.1 °F 39.0 °F 39.9 °F 85% 29.86 in 3.0 mi WNW 9.2 mph - 0.02 in Rain Rain
1:58 PM 42.8 °F 36.6 °F 39.2 °F 87% 29.85 in 2.5 mi WNW 11.5 mph - 0.01 in Rain Rain
2:07 PM 42.8 °F 36.6 °F 37.4 °F 81% 29.86 in 1.2 mi WNW 11.5 mph - 0.02 in Rain Heavy Rain
2:22 PM 42.8 °F - 41.0 °F 93% 29.86 in 1.5 mi Calm Calm - 0.12 in Rain Light Rain
2:26 PM 42.8 °F 41.1 °F 39.2 °F 87% 29.85 in 3.0 mi South 3.5 mph - 0.12 in Rain Light Rain
2:42 PM 44.6 °F 41.4 °F 39.2 °F 81% 29.85 in 8.0 mi Variable 5.8 mph - 0.13 in   Mostly Cloudy
2:53 PM 45.0 °F 42.6 °F 42.1 °F 90% 29.85 in 7.0 mi Variable 4.6 mph - 0.13 in   Mostly Cloudy
3:37 PM 48.2 °F - 44.6 °F 87% 29.83 in 10.0 mi Calm Calm - N/A   Scattered Clouds
3:53 PM 46.9 °F - 41.0 °F 80% 29.83 in 9.0 mi South 5.8 mph - N/A   Clear
4:53 PM 45.0 °F - 39.9 °F 82% 29.83 in 9.0 mi Calm Calm - 0.01 in   Overcast
5:08 PM 44.6 °F 43.1 °F 41.0 °F 87% 29.82 in 7.0 mi South 3.5 mph - 0.00 in Rain Light Rain
5:53 PM 44.1 °F 42.5 °F 39.9 °F 85% 29.82 in 9.0 mi SE 3.5 mph - 0.00 in   Mostly Cloudy
6:53 PM 42.1 °F - 37.9 °F 85% 29.82 in 7.0 mi Calm Calm - N/A   Clear
7:53 PM 39.9 °F - 37.0 °F 89% 29.82 in 6.0 mi Calm Calm - N/A   Mostly Cloudy
8:53 PM 39.0 °F - 36.0 °F 89% 29.81 in 5.0 mi Calm Calm - N/A   Partly Cloudy
9:53 PM 37.9 °F 35.5 °F 35.1 °F 89% 29.81 in 8.0 mi East 3.5 mph - N/A   Clear
10:53 PM 37.9 °F - 36.0 °F 93% 29.81 in 8.0 mi Calm Calm - N/A   Overcast
11:49 PM 39.2 °F - 37.4 °F 93% 29.82 in 2.5 mi Calm Calm - 0.04 in Rain Rain
11:53 PM 39.9 °F - 37.9 °F 93% 29.83 in 2.0 mi Calm Calm - 0.06 in Rain Heavy Rain